RH
100 100 100 100 100 100 100 100 100 100 100 92 100 100 100 96 65 56 56 58 55 45 37 34 33 32 36 29 28 34 45 54 54 50 51 55 34 24 72 60 21 32 46 83
100 100 100 100 100 100 100 100 100 95 77 80 92 99 93 74 63 48 49 42 45 39 32 28 28 44 35 27 21 27 29 54 56 55 56 58 36 33 76 83 31 29 70 64
100 100 100 99 95 100 100 95 95 98 81 82 84 82 70 63 48 41 40 48 39 36 30 25 30 36 26 26 24 27 26 41 59 64 67 66 39 40 96 91 40 47 40 57
97 95 100 84 78 75 75 80 86 82 78 68 67 66 65 55 48 41 37 41 33 33 28 34 47 37 29 24 32 31 29 40 44 72 78 80 34 47 100 96 69 29 37 50
96 93 96 100 90 77 71 72 72 68 61 59 77 67 73 63 69 32 38 34 37 42 38 47 35 30 46 40 47 56 52 55 65 63 87 76 37 64 100 100 83 48 46 44
92 92 87 84 78 66 62 61 64 71 74 70 76 88 75 62 49 26 49 58 51 66 58 44 30 29 37 59 86 84 69 81 96 92 100 69 60 81 100 100 98 35 29 50
100 100 100 100 100 100 85 88 96 81 74 98 61 57 67 66 46 42 61 46 68 61 57 40 43 44 44 53 89 100 87 88 100 100 100 78 86 99 100 100 100 32 27 56
92 92 98 97 100 99 100 90 87 55 68 70 72 63 73 80 68 62 43 59 61 67 62 54 56 73 64 67 84 100 100 100 99 100 99 100 100 100 100 100 94 29 26 47
67 72 80 92 85 80 76 100 82 82 84 62 82 69 65 74 78 63 48 62 67 69 70 64 54 68 94 93 96 92 96 100 100 100 100 100 100 100 100 100 82 26 31 38
98 86 73 74 74 65 69 63 59 58 48 55 88 72 70 70 72 67 75 92 94 83 70 58 63 80 100 100 87 65 78 100 100 100 100 99 92 94 100 100 61 26 27 31
100 98 100 92 100 100 84 89 80 76 55 51 49 76 96 83 80 64 73 97 91 79 81 86 93 81 58 37 17 16 40 95 100 100 100 100 100 100 100 100 35 24 26 45
100 100 100 100 100 100 100 88 91 79 56 49 42 60 100 69 91 81 65 96 98 100 91 62 26 14 12 11 12 13 15 38 100 100 100 100 100 100 100 60 24 26 34 50
99 100 100 100 100 100 100 100 100 100 94 78 82 69 100 100 100 89 77 100 76 37 18 17 16 13 13 16 18 17 18 18 33 100 100 100 100 100 48 24 22 34 53 53
83 89 98 100 100 100 100 96 100 100 75 77 67 76 100 100 100 59 35 20 19 21 19 20 21 16 17 19 21 21 20 21 23 26 43 46 56 57 29 23 44 70 47 53
70 77 75 65 71 98 100 98 95 89 89 77 74 78 67 48 24 17 16 22 40 33 29 29 25 22 21 19 20 20 19 20 25 28 39 39 44 70 46 76 69 60 49 56
28 23 38 44 34 30 51 72 62 63 64 69 54 36 34 22 25 27 33 40 36 42 39 32 24 22 19 19 19 19 19 20 26 30 34 38 46 100 86 100 86 91 81 100
32 26 22 15 23 30 25 21 25 26 33 31 22 21 23 20 24 41 49 48 40 40 34 26 22 19 20 18 21 19 18 22 27 31 34 36 38 68 98 92 97 97 87 100
28 34 33 21 22 20 16 26 23 21 22 31 21 17 19 27 40 45 40 43 40 34 30 26 21 20 19 20 20 20 21 24 28 35 46 50 82 91 97 90 82 72 100 100
26 26 30 30 21 20 16 24 40 38 16 25 36 38 46 41 34 23 32 35 40 36 30 24 22 19 18 22 35 77 57 34 32 36 50 100 72 81 78 56 72 100 100 100
33 27 25 19 19 20 16 29 32 26 14 36 49 48 37 29 28 28 32 36 33 26 24 28 23 24 27 25 47 56 35 28 36 100 100 100 100 100 74 100 100 100 100 100
35 31 26 24 27 15 21 30 40 25 23 35 40 34 39 38 37 39 37 29 27 23 29 23 26 30 34 35 44 37 68 62 80 100 100 100 100 68 93 100 100 99 100 100
42 38 23 26 29 15 26 24 30 23 28 30 40 44 46 43 37 44 35 32 29 31 23 28 30 33 39 38 37 80 99 94 100 100 100 100 56 100 100 95 100 100 100 100
30 33 30 30 26 23 25 32 32 28 29 36 42 40 39 36 36 30 29 30 32 28 33 32 36 38 40 55 70 87 100 100 100 74 77 100 100 100 98 100 100 100 100 100
32 35 30 29 22 24 24 24 26 34 34 37 29 27 29 27 26 28 28 31 34 25 34 32 35 39 78 89 75 100 100 100 100 100 97 100 100 100 100 100 88 100 100 100
30 36 29 26 20 26 20 19 24 28 27 20 22 23 25 21 21 24 27 29 27 22 27 25 32 80 100 88 100 100 99 100 97 100 100 100 100 100 100 100 100 100 100 100
32 22 23 17 15 18 19 17 14 15 17 20 18 19 22 20 19 19 21 21 18 21 15 19 44 100 77 100 100 100 100 99 91 100 100 100 100 100 98 92 100 100 100 98
Wind_Speed
76 76 76 74 72 72 70 67 62 63 65 65 67 68 69 73 73 75 75 73 69 71 73 71 72 68 70 46 49 45 46 46 48 48 43 42 40 39 39 40 43 41 42 36
75 77 75 74 71 69 66 65 67 68 72 72 72 73 73 76 76 76 76 76 76 73 69 70 64 68 66 49 49 47 50 52 48 46 46 43 40 38 39 41 43 42 40 41
85 83 81 79 78 80 83 80 81 80 79 79 79 77 76 79 79 79 78 79 76 77 76 68 65 68 61 54 53 54 53 56 48 46 44 42 41 41 41 42 43 44 43 42
92 92 93 93 92 88 89 85 84 86 84 83 84 80 83 82 79 81 81 78 78 74 72 66 66 65 56 55 56 57 59 61 51 45 43 43 40 42 43 42 45 46 45 43
97 96 96 93 92 92 93 92 91 90 89 87 88 84 82 83 82 84 78 76 74 71 69 68 63 56 59 62 62 59 58 58 50 47 42 42 41 43 46 45 44 45 45 47
102 102 100 96 95 97 96 94 93 92 92 93 88 85 87 84 84 82 83 84 82 76 74 72 63 62 65 66 62 52 51 49 46 47 45 43 43 46 45 46 47 49 48 47
95 98 99 100 98 98 97 96 93 91 89 94 85 87 86 87 80 84 85 80 74 75 72 68 66 64 64 64 59 50 49 46 45 48 49 44 44 49 48 49 49 53 50 44
97 97 96 94 96 93 92 94 93 87 89 89 88 84 87 83 83 81 80 77 75 72 71 69 68 67 67 65 57 49 49 46 46 49 51 51 50 49 51 53 53 54 56 48
99 97 96 92 94 94 92 91 87 86 87 87 86 84 79 78 80 82 81 80 80 80 77 74 73 70 68 61 53 48 48 49 47 53 56 55 51 49 53 55 56 57 58 52
97 95 94 94 92 93 94 91 89 89 87 85 81 83 81 79 77 81 86 85 82 80 80 78 77 74 63 60 58 55 51 50 51 52 53 54 52 52 54 56 59 58 61 55
96 95 93 94 90 94 95 92 93 93 89 87 83 83 84 83 80 84 85 84 84 83 80 74 72 72 70 69 66 59 55 52 54 54 53 53 51 52 54 58 59 61 62 56
102 99 93 92 90 91 94 95 96 96 92 90 86 76 75 81 83 83 83 85 84 82 81 81 79 78 75 70 65 61 57 54 55 55 55 59 56 57 58 61 62 62 60 55
103 101 99 96 94 95 97 96 97 96 93 88 95 80 77 78 78 80 79 82 86 87 83 79 79 75 71 66 63 62 57 56 55 56 56 55 59 62 64 62 64 61 56 54
110 103 97 94 92 96 98 96 91 92 92 88 90 86 78 83 82 82 87 87 87 82 81 78 75 72 69 65 64 61 59 56 55 55 58 59 59 63 65 64 62 59 60 57
109 106 108 103 96 99 106 100 92 91 89 98 86 93 85 83 84 90 88 84 81 82 78 75 72 69 67 65 66 65 61 59 56 54 55 62 61 65 63 60 61 62 61 61
111 107 110 108 100 107 114 103 96 92 96 97 97 95 82 86 88 88 82 84 82 81 78 76 74 68 66 63 64 64 61 61 58 55 57 61 62 59 63 58 61 56 57 56
109 112 114 111 102 116 119 96 99 101 97 100 103 94 92 88 89 86 76 83 79 83 80 72 71 72 69 62 61 60 60 59 58 56 57 61 63 59 57 61 57 61 55 54
110 110 114 111 113 121 100 101 100 100 100 101 103 98 91 87 88 85 77 85 81 80 79 77 73 66 63 58 55 54 56 56 55 52 54 56 52 58 59 60 58 55 55 56
111 113 117 115 112 115 105 91 92 101 105 98 99 92 88 91 97 80 79 93 83 79 80 78 73 68 64 60 54 49 49 51 48 45 48 49 57 57 59 60 56 55 54 56
114 114 119 112 115 115 99 93 100 103 107 94 99 95 93 93 97 84 81 91 85 82 80 76 71 71 70 63 51 48 42 44 36 40 48 46 45 54 59 52 54 51 52 58
116 118 116 115 118 106 92 91 101 97 93 105 98 96 96 92 93 85 81 83 82 78 77 75 73 74 67 61 46 38 29 26 22 30 43 45 57 62 52 49 51 52 62 66
117 121 114 117 120 101 94 97 99 89 96 91 91 93 96 89 85 86 81 82 79 81 78 76 73 68 62 48 45 27 20 32 26 40 55 62 61 53 50 52 51 55 58 62
117 118 118 117 108 89 83 91 90 91 92 94 103 92 95 87 85 82 83 83 82 79 76 75 69 60 51 40 33 33 26 37 44 48 51 45 56 51 53 56 54 61 63 64
115 114 111 109 86 82 92 87 85 92 94 97 91 84 89 88 83 83 85 83 81 70 72 72 60 48 33 28 25 37 44 50 54 64 55 45 55 64 57 62 59 64 69 70
93 106 100 100 75 99 85 84 93 97 92 78 81 83 85 85 79 81 80 80 77 61 62 54 50 41 32 26 28 34 36 44 44 45 47 56 60 60 64 62 61 65 71 76
91 86 100 81 77 94 76 85 82 83 80 77 76 76 77 76 72 72 68 66 58 51 47 45 44 40 40 37 35 38 41 48 45 47 53 57 58 61 65 62 65 72 76 78
Wind_Direction
270 273 275 278 279 282 285 291 293 293 288 288 289 292 297 299 300 303 307 308 309 313 314 315 317 321 327 325 329 327 327 333 333 331 325 318 320 324 330 330 330 333 327 323
275 281 279 279 281 280 281 286 279 278 284 286 288 292 294 295 298 302 304 307 308 309 315 315 318 319 321 321 326 326 324 331 327 327 322 316 317 319 325 330 328 328 322 322
266 267 269 270 271 275 275 277 281 283 285 286 288 291 293 296 299 302 302 303 307 308 308 310 315 317 318 322 325 328 323 326 321 315 314 312 311 315 322 328 328 324 324 322
266 267 268 271 274 275 276 277 280 283 284 284 287 291 294 295 296 300 302 302 303 306 306 308 313 313 313 319 323 322 322 323 320 315 308 307 309 311 320 324 326 324 322 323
266 267 268 270 272 274 277 278 280 280 284 286 288 292 293 292 296 301 299 300 303 304 306 309 312 313 316 319 318 318 317 317 313 312 307 303 305 308 316 320 323 319 321 321
267 266 266 269 271 275 278 278 279 279 282 282 286 290 292 293 294 296 299 302 302 304 304 307 308 308 311 317 317 319 317 312 310 307 304 299 302 304 312 315 318 320 321 319
263 265 267 269 272 274 276 277 279 281 283 283 287 287 290 291 292 293 298 301 301 302 302 306 307 310 310 312 312 309 310 308 305 302 301 297 297 301 309 311 314 317 320 318
264 265 265 268 270 272 272 274 276 277 279 283 283 286 288 288 292 295 299 299 302 302 302 304 307 307 307 309 307 304 303 301 302 298 297 294 294 298 307 310 313 314 318 316
267 266 264 265 267 271 272 271 274 277 277 279 283 283 289 289 290 294 298 296 296 298 300 302 304 303 303 303 302 302 299 297 297 295 294 292 294 298 303 307 311 311 315 313
263 266 267 268 270 271 271 271 275 276 277 280 280 284 286 289 290 292 292 292 293 295 297 297 297 297 297 298 300 298 294 291 292 291 290 289 294 300 301 303 305 309 310 313
258 261 263 265 266 268 271 273 274 275 278 278 279 283 286 288 290 288 288 289 291 292 293 293 295 296 298 298 298 294 290 288 287 289 290 296 299 293 292 298 303 304 308 312
255 257 258 261 262 265 268 271 272 273 277 278 281 281 278 285 283 284 286 286 288 289 291 293 294 295 296 295 293 292 287 283 282 283 285 291 294 296 291 295 300 301 308 309
254 254 256 258 261 262 261 262 268 271 271 276 277 280 277 277 277 280 284 286 288 289 291 292 292 294 296 296 294 292 287 284 278 280 282 286 290 291 291 292 297 299 302 307
258 258 258 257 258 262 262 262 264 266 270 273 274 275 275 278 280 281 282 283 285 286 286 287 290 294 294 293 290 288 286 283 279 277 279 281 284 288 290 294 296 296 300 305
258 259 261 261 261 261 262 260 261 264 268 271 273 274 278 281 283 285 287 287 284 286 288 289 291 292 292 290 287 283 281 278 276 275 279 283 287 290 291 292 291 294 300 304
256 257 257 259 262 262 261 263 272 275 273 271 274 278 277 279 283 283 285 284 287 288 288 290 295 297 293 290 284 280 278 275 271 271 272 278 287 281 291 287 290 295 298 296
256 258 258 258 257 257 261 271 268 268 273 275 275 278 278 279 281 281 282 282 284 286 288 293 295 294 292 289 282 279 275 271 269 269 269 273 277 281 278 288 289 293 297 293
257 258 259 260 257 259 267 263 266 268 269 271 274 276 278 277 273 275 283 282 283 282 287 291 294 293 294 292 288 284 272 270 268 271 277 279 280 280 285 286 290 292 289 288
258 259 259 259 260 262 263 265 263 264 267 270 272 273 272 273 276 281 281 279 280 286 287 289 289 289 289 291 296 276 271 269 269 271 272 259 274 279 281 289 291 288 285 284
260 261 261 262 262 261 264 263 265 265 270 267 267 270 274 275 275 277 275 277 282 284 288 288 290 290 294 292 287 272 274 268 264 272 270 277 282 281 288 289 283 284 286 288
259 261 263 263 264 262 263 264 265 268 273 265 269 271 270 271 274 275 277 279 281 282 283 286 286 290 291 289 276 269 271 266 266 254 241 263 264 284 284 282 281 288 291 291
260 262 265 263 264 269 270 267 268 269 267 270 268 268 270 271 273 273 275 277 278 280 281 284 285 288 286 279 269 249 257 263 237 244 244 257 274 279 279 284 281 283 280 289
261 263 264 267 268 270 271 267 265 265 264 267 266 265 268 270 272 271 270 270 271 275 280 282 281 281 273 260 254 226 235 253 248 258 258 265 270 278 285 289 280 285 283 291
263 264 266 268 270 270 263 264 264 265 265 262 264 262 266 266 266 269 269 270 273 275 276 274 273 263 244 236 240 218 223 236 252 260 266 272 279 283 279 277 286 286 284 284
262 263 267 266 267 263 262 263 263 263 260 259 260 260 260 263 264 265 268 271 273 270 265 260 252 229 223 228 227 238 255 241 250 263 271 271 271 270 273 281 281 281 281 284
262 260 261 263 262 262 258 258 257 258 261 262 262 263 263 263 263 263 265 264 266 262 253 238 226 206 219 222 229 237 246 246 262 258 264 267 271 273 280 282 279 280 282 289